London City, United Kingdom

9:58 PM BST on September 19, 2017 (GMT +0100)
London City

Weather History for EGLC - August, 2013

Change the Weather History Date:

Thursday, August 1, 2013

  Actual Average Record
Temperature  
Mean Temperature 76 °F -  
Max Temperature 91 °F 71 °F 91 °F (2013)
Min Temperature 62 °F 59 °F 53 °F (1998)
Cooling Degree Days 12    
Growing Degree Days 26 (Base 50)    
Moisture  
Dew Point 62 °F    
Average Humidity 61    
Maximum Humidity 94    
Minimum Humidity 34    
Precipitation  
Precipitation 0.00 in - - ()
Sea Level Pressure  
Sea Level Pressure 29.82 in    
Wind  
Wind Speed 6 mph ()    
Max Wind Speed 15 mph    
Max Gust Speed 26 mph    
Visibility 6.2 miles    
Events      
Averages and records for this station are not official NWS values.
T = Trace of Precipitation, MM = Missing Value Source: Averaged Metar Reports

Daily Weather History Graph

Daily Weather History Graph

Search for Another Location

Airport or City:

Trip Planner

Search our weather history database for the weather conditions in past years. The results will help you decide how hot, cold, wet, or windy it might be!

Date:

Astronomy

Aug. 01, 2013 Rise Set
Actual Time 5:23 AM BST 8:47 PM BST
Civil Twilight 4:42 AM BST 9:27 PM BST
Nautical Twilight 3:48 AM BST 10:22 PM BST
Astronomical Twilight 2:31 AM BST 11:36 PM BST
Moon 12:47 AM BST (8/1) 4:48 PM BST (8/1)
Length of Visible Light 16h 45m
Length of Day
15h 24m
Waning Crescent, 25% of the Moon is Illuminated
Aug 1
Waning Crescent
Aug 6
New
Aug 14
First Quarter
Aug 21
Full
Aug 28
Last Quarter

Hourly Weather History & Observations

Time (BST) Temp. Heat Index Dew Point Humidity Pressure Visibility Wind Dir Wind Speed Gust Speed Precip Events Conditions
12:20 AM 69.8 °F - 60.8 °F 73% 29.95 in 6.2 mi Variable 3.5 mph - N/A   Overcast
12:50 AM 68.0 °F - 62.6 °F 83% 29.95 in 6.2 mi South 4.6 mph - N/A   Overcast
1:20 AM 68.0 °F - 60.8 °F 78% 29.95 in 6.2 mi South 4.6 mph - N/A   Overcast
1:50 AM 66.2 °F - 60.8 °F 83% 29.95 in 6.2 mi Variable 3.5 mph - N/A   Overcast
2:20 AM 66.2 °F - 60.8 °F 83% 29.95 in 6.2 mi Variable 3.5 mph - N/A   Overcast
2:50 AM 66.2 °F - 60.8 °F 83% 29.92 in 6.2 mi Variable 3.5 mph - N/A   Overcast
3:20 AM 66.2 °F - 60.8 °F 83% 29.92 in 6.2 mi South 4.6 mph - N/A   Partly Cloudy
3:50 AM 64.4 °F - 60.8 °F 88% 29.92 in 6.2 mi SE 3.5 mph - N/A   Unknown
4:20 AM 64.4 °F - 60.8 °F 88% 29.92 in 6.2 mi East 3.5 mph - N/A   Unknown
4:50 AM 64.4 °F - 60.8 °F 88% 29.89 in 6.2 mi Variable 3.5 mph - N/A   Unknown
5:20 AM 62.6 °F - 60.8 °F 94% 29.89 in 6.2 mi Variable 3.5 mph - N/A   Unknown
5:50 AM 62.6 °F - 60.8 °F 94% 29.89 in 6.2 mi East 3.5 mph - N/A   Unknown
6:20 AM 64.4 °F - 60.8 °F 88% 29.89 in - ENE 3.5 mph - N/A   Clear
6:50 AM 66.2 °F - 60.8 °F 83% 29.89 in - East 5.8 mph - N/A   Clear
7:20 AM 66.2 °F - 60.8 °F 83% 29.89 in - East 5.8 mph - N/A   Clear
7:50 AM 68.0 °F - 62.6 °F 83% 29.89 in - East 5.8 mph - N/A   Clear
8:20 AM 71.6 °F - 62.6 °F 73% 29.89 in - ESE 8.1 mph - N/A   Clear
8:50 AM 75.2 °F - 62.6 °F 65% 29.86 in - ESE 8.1 mph 20.7 mph N/A   Clear
9:20 AM 78.8 °F - 64.4 °F 61% 29.86 in - ESE 6.9 mph - N/A   Clear
9:50 AM 78.8 °F - 62.6 °F 57% 29.86 in - ESE 11.5 mph - N/A   Clear
10:20 AM 80.6 °F 82.3 °F 64.4 °F 58% 29.83 in - SE 12.7 mph - N/A   Clear
10:50 AM 82.4 °F 83.9 °F 64.4 °F 54% 29.83 in - SE 10.4 mph - N/A   Clear
11:20 AM 84.2 °F 85.6 °F 64.4 °F 51% 29.80 in - SE 10.4 mph - N/A   Clear
11:50 AM 86.0 °F 87.3 °F 64.4 °F 48% 29.80 in - SSE 10.4 mph - N/A   Clear
12:20 PM 86.0 °F 87.3 °F 64.4 °F 48% 29.80 in - SE 11.5 mph - N/A   Clear
12:50 PM 86.0 °F 87.3 °F 64.4 °F 48% 29.80 in - SE 11.5 mph - N/A   Clear
1:20 PM 87.8 °F 89.4 °F 64.4 °F 46% 29.77 in - SSE 11.5 mph - N/A   Clear
1:50 PM 87.8 °F 88.5 °F 62.6 °F 43% 29.77 in - SSE 12.7 mph - N/A   Clear
2:20 PM 87.8 °F 88.5 °F 62.6 °F 43% 29.77 in - SSE 11.5 mph - N/A   Clear
2:50 PM 89.6 °F 90.1 °F 62.6 °F 40% 29.77 in - SSE 12.7 mph - N/A   Clear
3:20 PM 89.6 °F 89.5 °F 60.8 °F 38% 29.74 in - SSE 12.7 mph - N/A   Clear
3:50 PM 89.6 °F 89.5 °F 60.8 °F 38% 29.74 in - SSE 11.5 mph - N/A   Clear
4:20 PM 91.4 °F 91.4 °F 60.8 °F 36% 29.74 in - SE 11.5 mph 23.0 mph N/A   Clear
4:50 PM 91.4 °F 90.7 °F 59.0 °F 34% 29.71 in - South 11.5 mph - N/A   Clear
5:20 PM 89.6 °F 89.5 °F 60.8 °F 38% 29.71 in - SSE 13.8 mph - N/A   Clear
5:50 PM 89.6 °F 91.1 °F 64.4 °F 43% 29.71 in - SSE 13.8 mph 26.5 mph N/A   Clear
6:20 PM 89.6 °F 90.1 °F 62.6 °F 40% 29.71 in - SE 13.8 mph - N/A   Clear
6:50 PM 87.8 °F 88.5 °F 62.6 °F 43% 29.68 in - SE 15.0 mph - N/A   Clear
7:20 PM 87.8 °F 88.5 °F 62.6 °F 43% 29.68 in - SE 11.5 mph - N/A   Clear
7:50 PM 87.8 °F 88.5 °F 62.6 °F 43% 29.68 in - SE 11.5 mph - N/A   Clear
8:50 PM 86.0 °F 86.6 °F 62.6 °F 45% 29.71 in - SSE 11.5 mph - N/A   Clear
9:50 PM 82.4 °F 83.4 °F 62.6 °F 51% 29.71 in 6.2 mi South 5.8 mph - N/A   Unknown
10:20 PM 80.6 °F 81.5 °F 60.8 °F 51% 29.71 in 6.2 mi South 4.6 mph - N/A   Unknown
10:50 PM 80.6 °F 81.8 °F 62.6 °F 54% 29.74 in 6.2 mi South 6.9 mph - N/A   Unknown
11:20 PM 78.8 °F - 62.6 °F 57% 29.74 in 6.2 mi SW 10.4 mph - N/A   Unknown
11:50 PM 78.8 °F - 62.6 °F 57% 29.74 in 6.2 mi WSW 9.2 mph - N/A   Unknown